Regional Weather Roundup
Issued by NWS

Home | Current Version | Previous Version | Graphics & Text | Print | Product List | Glossary On
Versions: 1 2 3 4 5 6 7 8 9 10 11 12 13 14 15 16 17 18 19 20 21 22 23 24 25 26 27 28 29 30 31 32 33 34 35 36 37 38 39 40 41 42 43 44 45 46 47 48 49 50
000
ASUS43 KDTX 291401
RWRMI
MICHIGAN HOURLY REGIONAL WEATHER ROUNDUP
NATIONAL WEATHER SERVICE DETROIT/PONTIAC MI
1000 AM EDT SAT APR 29 2017

NOTE: "FAIR" INDICATES FEW OR NO CLOUDS BELOW 12,000 FEET WITH NO
SIGNIFICANT WEATHER AND/OR OBSTRUCTION TO VISIBILITY.

MIZ047>049-052>055-059>063-066>070-074>076-081>083-291500-
SOUTHEAST LOWER MICHIGAN

CITY           SKY/WX    TMP DP  RH WIND       PRES   REMARKS
ADRIAN         CLOUDY    49  44  83 NE9       30.13R
ALMA           CLOUDY    46  36  68 NE7       30.20R
ANN ARBOR      CLOUDY    47  38  71 N8        30.13R
BAD AXE        CLOUDY    40  32  72 NE13G20   30.20S WCI  33
CARO           CLOUDY    45  35  68 NE8       30.19R
DETROIT CITY   CLOUDY    45  33  63 NE15      30.15F
DETROIT        CLOUDY    46  35  65 N13G21    30.14S
FLINT          CLOUDY    46  35  65 NE15      30.16F
GROSSE ILE     CLOUDY    46  34  65 NE16      30.12S
HILLSDALE      CLOUDY    46  37  71 NE7       30.10R
HOWELL         CLOUDY    46  36  67 N7        30.13F

CITY           SKY/WX    TMP DP  RH WIND       PRES   REMARKS
JACKSON        CLOUDY    47  38  71 NE10      30.12F
LAMBERTVILLE   CLOUDY    46  41  82 NE7       30.14R
LANSING        CLOUDY    48  37  65 N12       30.16S
LAPEER         CLOUDY    45  33  65 NE9G16    30.17F
MASON          CLOUDY    46  40  78 NE9       30.14S
MONROE         CLOUDY    46  37  70 NE5       30.14R
MT. CLEMENS    CLOUDY    44  35  69 N13       30.14F
PONTIAC        CLOUDY    45  33  63 N14       30.13F
PORT HOPE        N/A     41  33  73 N15G23    30.19S
PORT HURON     CLOUDY    41  30  65 N10G16    30.18F
TRI CITIES     CLOUDY    46  36  68 NE9       30.20S
MIDLAND        CLOUDY    46  30  55 N9        30.20R
TROY           CLOUDY    46  31  56 NE12G20   30.16S
SAGINAW HB     CLOUDY    45  34  65 NE10      30.19R
$$
MIZ043>046-050>051-056>058-064>065-071>073-077>080-291500-
SOUTHWEST LOWER MICHIGAN

CITY           SKY/WX    TMP DP  RH WIND       PRES   REMARKS
BATTLE CREEK   CLOUDY    49  42  77 N14       30.12F
BENTON HARBOR  CLOUDY    51  40  65 NE8       30.12F
BIG RAPIDS     CLOUDY    43  31  63 N9        30.22R
COLDWATER      CLOUDY    48  41  77 NE9       30.11S
FREMONT        FAIR      45  30  55 N14       30.21R
HOLLAND        CLOUDY    48  36  63 NE12      30.17R
GRAND RAPIDS   CLOUDY    47  38  71 NE13      30.17R
KALAMAZOO      CLOUDY    50  41  71 N10       30.13R
LUDINGTON      SUNNY     42  30  62 NE10      30.24S
MARSHALL       CLOUDY    47  41  79 NE5       30.11F
MOUNT PLEASANT CLOUDY    44  32  61 NE12      30.20R
MUSKEGON       CLOUDY    49  36  61 N10G21    30.21R
SOUTH HAVEN    CLOUDY    49  39  69 NE12      30.12F
$$
MIZ016>042-291500-
NORTHERN LOWER MICHIGAN

CITY           SKY/WX    TMP DP  RH WIND       PRES   REMARKS
ALPENA         SUNNY     43  28  55 N16       30.22R
BEAVER ISLAND  CLOUDY    38  27  64 N12G17    30.29R WCI  30
BELLAIRE       MOSUNNY   41  26  55 N7        30.27R
CADILLAC       CLOUDY    39  27  61 N8        30.21R WCI  34
CHARLEVOIX     CLOUDY    38  29  68 N12       30.30R WCI  31
FRANKFORT      SUNNY     41  27  56 N8G17     30.26S
GAYLORD        SUNNY     40  24  53 VRB5      30.21R
GRAYLING       SUNNY     41  27  57 N7        30.23R
HARBOR SPRINGS CLOUDY    40  27  61 NW9G16    30.26R WCI  33
HOUGHTON LAKE  CLOUDY    41  27  57 N12       30.22R
MANISTEE       SUNNY     42  27  55 NE9       30.25R
OSCODA         MOSUNNY   45  29  55 NW13G21   30.19S
PELLSTON         N/A     41  26  55 N14       30.26S
ROGERS CITY    CLOUDY    39  28  64 N16G24    30.24R WCI  30
TRAVERSE CITY  MOSUNNY   41  26  55 N13       30.25R
$$
MIZ007>008-015-291500-
EASTERN UPPER MICHIGAN

CITY           SKY/WX    TMP DP  RH WIND       PRES   REMARKS
KINROSS        CLOUDY    36  26  67 NW20      30.25R WCI  25
MACKINAC ISLAN CLOUDY    39  28  64 NW12G18   30.25S WCI  32
NEWBERRY       CLOUDY    37  27  67 N9        30.28R WCI  30
S. S. MARIE    CLOUDY    39  25  57 NW13      30.24R WCI  31
MUNISING         N/A     38  26  62 NE14      30.31R WCI  30
$$
MIZ004>006-011>014-085-291500-
CENTRAL UPPER MICHIGAN

CITY           SKY/WX    TMP DP  RH WIND       PRES   REMARKS
MANISTIQUE     PTSUNNY   40  31  71 NW10      30.28F WCI  33
ESCANABA       PTSUNNY   38  26  62 N12G20    30.29F WCI  30
MENOMINEE      SUNNY     39  25  57 NE16      30.30S WCI  30
SAWYER-GWINN   SUNNY     36  23  60 N15       30.31R WCI  26
$$
MIZ001>003-009>011-084-291500-
WESTERN UPPER MICHIGAN

CITY           SKY/WX    TMP DP  RH WIND       PRES   REMARKS
IRON MOUNTAIN  CLOUDY    38  22  52 N12G21    30.28F WCI  30
HOUGHTON       SUNNY     37  22  54 S7        30.33R WCI  32
COPPER HARBOR    N/A     40  25  55 N7        30.35R
IRONWOOD       SUNNY     38  26  62 E10       30.33F WCI  31
$$

ABBREVIATIONS USED IN REMARKS
   TC - TEMPERATURE IN CELSIUS
  WCI - WIND CHILL INDEX
   HX - HEAT INDEX
  VSB - VISIBILITY





USA.gov is the U.S. government's official web portal to all federal, state and local government web resources and services.